Location: Newark
(30.1000°N, 109.4667°E)
Time: 00:40:39
(UTC+00:00)

A-11 Canister half - Pass Details

Date: 18 February 2020
Orbit: 1517 x 1683 km, 47.2° (Epoch: 27 March)

Event Time Altitude Azimuth Distance (km) Brightness Sun altitude
Rises 13:32:49 0° 302° (WNW) 4,818 12.4 -39.6°
Reaches altitude 10° 13:36:34 10° 313° (NW) 3,804 11.6 -40.4°
Enters shadow 13:43:32 29° 359° (N) 2,553 10.1 -41.8°
